This is the latest recevied weather packets stored in our database for station/object KE5YIM-13. If no packets are shown the sender has not sent any weather packets the latest 10 day(s).
| Time | Temp. | Humidity | Pressure | Rain* | Wind** | Luminosity | Snow |
|---|---|---|---|---|---|---|---|
| 1777742475 | 12.78° C | 74% | 1012.2 hPa | 0 mm | - | 284 W/m² | - |
| 1777742171 | 13.33° C | 72% | 1012.4 hPa | 0 mm | - | 253 W/m² | - |
| 1777741868 | 13.33° C | 73% | 1012.4 hPa | 0 mm | - | 299 W/m² | - |
| 1777741565 | 13.33° C | 72% | 1012.3 hPa | 0 mm | - | 367 W/m² | - |
| 1777741262 | 13.33° C | 71% | 1012.5 hPa | 0 mm | - | 408 W/m² | - |
| 1777740958 | 13.33° C | 71% | 1012.2 hPa | 0 mm | - | 401 W/m² | - |
| 1777740656 | 13.33° C | 71% | 1012.3 hPa | 0 mm | - | 414 W/m² | - |
| 1777740351 | 13.33° C | 72% | 1012.4 hPa | 0 mm | - | 408 W/m² | - |
| 1777740049 | 12.78° C | 73% | 1012.3 hPa | 0 mm | - | 421 W/m² | - |
| 1777739745 | 12.78° C | 75% | 1012.4 hPa | 0 mm | - | 482 W/m² | - |
| 1777739442 | 12.78° C | 74% | 1012.4 hPa | 0 mm | - | 307 W/m² | - |
| 1777739138 | 12.78° C | 74% | 1012.5 hPa | 0 mm | - | 363 W/m² | - |
| 1777738836 | 12.78° C | 74% | 1012.7 hPa | 0 mm | - | 356 W/m² | - |
| 1777738532 | 12.78° C | 75% | 1012.6 hPa | 0 mm | - | 438 W/m² | - |
| 1777738230 | 12.22° C | 75% | 1012.7 hPa | 0 mm | - | 275 W/m² | - |
| 1777737928 | 12.22° C | 76% | 1012.7 hPa | 0 mm | - | 294 W/m² | - |
| 1777737626 | 12.22° C | 75% | 1012.7 hPa | 0 mm | - | 417 W/m² | - |
| 1777737325 | 12.78° C | 76% | 1012.8 hPa | 0 mm | - | 270 W/m² | - |
| 1777737021 | 12.22° C | 76% | 1012.7 hPa | 0 mm | - | 269 W/m² | - |
| 1777736717 | 12.22° C | 76% | 1012.6 hPa | 0 mm | - | 293 W/m² | - |
| 1777736078 | 11.67° C | 77% | 1012.6 hPa | 0 mm | - | 307 W/m² | - |
| 1777735775 | 11.67° C | 77% | 1012.7 hPa | 0 mm | - | 292 W/m² | - |
| 1777735472 | 12.22° C | 77% | 1012.6 hPa | 0 mm | - | 242 W/m² | - |
| 1777735170 | 12.22° C | 77% | 1012.8 hPa | 0 mm | - | 327 W/m² | - |
| 1777734866 | 12.22° C | 78% | 1012.8 hPa | 0 mm | - | 305 W/m² | - |
* Rain latest hour (hover to see other rain measurements)
** Current wind speed in m/s (hover to see current wind gust speed)